Regional Weather Roundup
Issued by NWS

Home | Current Version | Previous Version | Graphics & Text | Print | Product List | Glossary On
Versions: 1 2 3 4 5 6 7 8 9 10 11 12 13 14 15 16 17 18 19 20 21 22 23 24 25 26 27 28 29 30 31 32 33 34 35 36 37 38 39 40 41 42 43 44 45 46 47 48 49 50
000
ASUS45 KSLC 291710
RWRUT

UTAH REGIONAL WEATHER ROUNDUP
NATIONAL WEATHER SERVICE SALT LAKE CITY UT
1000 AM MST THU JAN 29 2015

UTZ001>011-023>025-291800-

NORTHERN UTAH

CITY           SKY/WX    TMP DP  RH WIND       PRES   REMARKS
BRIGHAM CITY   SUNNY     34  32  94 NW6       30.36F WCI  29
HILL AFB       MOSUNNY   44  25  48 E20G26    30.33F
LOGAN          FOG       34  33  96 N3        30.40S VSB 1/2
OGDEN          SUNNY     38  34  85 W5        30.34F WCI  34
PROVO AIRPORT  MOSUNNY   34  30  86 CALM      30.38R FOG
SALT LAKE CITY PTSUNNY   35  32  88 CALM      30.36S
VERNAL         MOSUNNY   43  28  55 CALM      30.41R
WENDOVER       PTSUNNY   41  34  75 CALM      30.38R
HEBER CITY     CLOUDY    32  30  93 CALM      30.40S
WEST JORDAN    SUNNY     39  36  87 CALM      30.37R

$$

UTZ012>022-026-027-291800-

SOUTHERN/CENTRAL UTAH

CITY           SKY/WX    TMP DP  RH WIND       PRES   REMARKS
BLANDING       CLOUDY    41  31  68 N3        30.43R
BRYCE CANYON   CLOUDY    34  28  79 N5        30.36S WCI  30
CEDAR CITY     CLOUDY    37  32  82 W3        30.30S
DELTA          PTSUNNY   35  32  87 CALM      30.35R
HANKSVILLE     CLOUDY    36  32  87 CALM      30.40S
MILFORD        CLOUDY    38  32  79 N5        30.33S WCI  34
MOAB/CYNLANDS  SUNNY     41  32  70 CALM      30.35S
PRICE          PTSUNNY   44  27  51 VRB3      30.36R
ST GEORGE      MOSUNNY   48  39  71 CALM      30.27S
KANAB            N/A     46  34  61 NE6       30.34S

$$

REGIONAL REPORTS     COLORADO/ARIZONA

CITY           SKY/WX    TMP DP  RH WIND       PRES   REMARKS
CRAIG, CO      MOSUNNY   30  29  96 CALM      30.43R
GRAND JUNCTION SUNNY     44  29  55 SE10      30.37S
RIFLE          SUNNY     39  27  62 CALM      30.40S
MONTROSE       MOSUNNY   38  30  73 CALM      30.40S
CORTEZ         MOSUNNY   41  30  65 CALM      30.36R
PAGE, AZ       NOT AVBL
GRAND CANYON   CLOUDY    42  31  64 E10       30.29S
KINGMAN        CLOUDY    52  43  71 NE7       30.19R
FLAGSTAFF      CLOUDY    42  28  57 NE12G18   30.31R

$$

REGIONAL REPORTS    NEVADA/IDAHO/WYOMING

CITY           SKY/WX    TMP DP  RH WIND       PRES   REMARKS
LAS VEGAS, NV  CLOUDY    57  42  57 S7        30.16R
ELY            PTSUNNY   31  30  96 CALM      30.34S
ELKO           CLOUDY    32  30  92 CALM      30.33R
POCATELLO, ID  CLOUDY    33  32  96 E3        30.42F FOG
BURLEY         CLOUDY    37  32  82 E14       30.39F WCI  28
EVANSTON, WY   PTSUNNY   29  26  89 N7        30.39S FOG     WCI  22
ROCK SPRINGS   FOG       28  27  96 E10       30.43S VSB 1/4 WCI  19
KEMMERER       PTSUNNY   28  28 100 NE14G21   30.41  WCI  17

$$


USA.gov is the U.S. government's official web portal to all federal, state and local government web resources and services.